EZY23KM EGGP-LEBL

Flight info

Callsign EZY23KM
Flight time N/A
Altitude 39000
Route NANTI L8 STAFA P18 TELBA L151 KIDLI UN859 SOPIL DCT BALAN DCT EVPOK DCT NARAK DCT GAI DCT LOMRA DCT ROCAN DCT PUMAL
Aircraft A20N/M-SDE2E3FGHIRWXY/LB1

Departure

Time 2026-04-29 14:34
Airport Liverpool John Lennon Airport (EGGP)

Arrival

Time N/A
Airport Josep Tarradellas Barcelona-El Prat Airport (LEBL)
Time Latitude Longitude Altitude Speed Heading
2026-04-29 14:07 53.33667 -2.85587 81 ft 0 kts 355°
2026-04-29 14:25 53.33656 -2.85586 81 ft 2 kts 355°
2026-04-29 14:25 53.33641 -2.85584 81 ft 2 kts 355°
2026-04-29 14:25 53.33626 -2.85582 81 ft 2 kts 355°
2026-04-29 14:25 53.33618 -2.85581 81 ft 1 kts 355°
2026-04-29 14:26 53.33611 -2.85575 81 ft 1 kts 288°
2026-04-29 14:26 53.33611 -2.85565 81 ft 1 kts 256°
2026-04-29 14:26 53.33612 -2.85557 81 ft 0 kts 265°
2026-04-29 14:29 53.33611 -2.85563 81 ft 2 kts 265°
2026-04-29 14:29 53.33609 -2.85620 81 ft 7 kts 266°
2026-04-29 14:30 53.33606 -2.85727 81 ft 10 kts 266°
2026-04-29 14:30 53.33599 -2.85872 81 ft 13 kts 264°
2026-04-29 14:30 53.33593 -2.86039 81 ft 14 kts 269°
2026-04-29 14:30 53.33588 -2.86207 81 ft 13 kts 263°
2026-04-29 14:31 53.33537 -2.86314 81 ft 6 kts 211°
2026-04-29 14:31 53.33496 -2.86319 81 ft 6 kts 177°
2026-04-29 14:31 53.33469 -2.86344 81 ft 5 kts 248°
2026-04-29 14:31 53.33462 -2.86414 81 ft 6 kts 243°
2026-04-29 14:32 53.33414 -2.86433 81 ft 8 kts 171°
2026-04-29 14:32 53.33399 -2.86429 81 ft 0 kts 171°
2026-04-29 14:32 53.33396 -2.86428 81 ft 1 kts 171°
2026-04-29 14:32 53.33364 -2.86422 81 ft 7 kts 176°
2026-04-29 14:33 53.33304 -2.86377 81 ft 11 kts 112°
2026-04-29 14:33 53.33302 -2.86321 81 ft 0 kts 85°
2026-04-29 14:33 53.33302 -2.86317 81 ft 1 kts 85°
2026-04-29 14:34 53.33315 -2.86032 81 ft 60 kts 85°
2026-04-29 14:34 53.33366 -2.84949 81 ft 124 kts 85°
2026-04-29 14:34 53.33447 -2.83254 217 ft 161 kts 86°
2026-04-29 14:34 53.33546 -2.81361 810 ft 168 kts 87°
2026-04-29 14:35 53.33540 -2.79438 1501 ft 170 kts 106°
2026-04-29 14:35 53.32818 -2.77878 2124 ft 182 kts 137°
2026-04-29 14:35 53.31711 -2.76634 2432 ft 204 kts 140°
2026-04-29 14:35 53.30471 -2.75278 2859 ft 221 kts 140°
2026-04-29 14:36 53.29152 -2.73847 3309 ft 237 kts 141°
2026-04-29 14:36 53.27741 -2.72322 3946 ft 246 kts 141°
2026-04-29 14:36 53.26309 -2.70775 4756 ft 247 kts 142°
2026-04-29 14:36 53.24889 -2.69238 5543 ft 248 kts 142°
2026-04-29 14:37 53.23443 -2.67673 6332 ft 250 kts 143°
2026-04-29 14:37 53.22001 -2.66113 7119 ft 251 kts 143°
2026-04-29 14:37 53.20540 -2.64532 7841 ft 254 kts 143°
2026-04-29 14:37 53.19049 -2.62918 8556 ft 257 kts 143°
2026-04-29 14:38 53.17585 -2.61238 9239 ft 260 kts 140°
2026-04-29 14:38 53.16109 -2.59490 9918 ft 263 kts 141°
2026-04-29 14:38 53.14618 -2.57724 10600 ft 266 kts 141°
2026-04-29 14:38 53.13074 -2.55897 11031 ft 278 kts 140°
2026-04-29 14:39 53.11465 -2.53992 11341 ft 295 kts 140°
2026-04-29 14:39 53.09763 -2.51975 11603 ft 310 kts 141°
2026-04-29 14:39 53.07961 -2.49848 11915 ft 325 kts 141°
2026-04-29 14:39 53.06077 -2.47631 12334 ft 334 kts 141°
2026-04-29 14:40 53.04184 -2.45408 12973 ft 336 kts 141°
2026-04-29 14:40 53.02298 -2.43197 13638 ft 337 kts 141°
2026-04-29 14:40 53.00388 -2.40955 14242 ft 340 kts 141°
2026-04-29 14:40 52.98436 -2.38665 14805 ft 343 kts 140°
2026-04-29 14:41 52.96479 -2.36370 15353 ft 347 kts 141°
2026-04-29 14:41 52.94501 -2.34057 15878 ft 350 kts 141°
2026-04-29 14:41 52.92510 -2.31732 16414 ft 353 kts 141°
2026-04-29 14:41 52.90497 -2.29378 16958 ft 355 kts 141°
2026-04-29 14:42 52.88431 -2.27043 17499 ft 360 kts 146°
2026-04-29 14:42 52.86060 -2.25558 17929 ft 374 kts 164°
2026-04-29 14:42 52.83421 -2.25387 18416 ft 389 kts 182°
2026-04-29 14:42 52.80746 -2.26305 18973 ft 394 kts 187°
2026-04-29 14:43 52.78088 -2.27352 19500 ft 396 kts 188°
2026-04-29 14:43 52.75394 -2.28410 20001 ft 398 kts 187°
2026-04-29 14:43 52.72714 -2.29446 20518 ft 399 kts 187°
2026-04-29 14:43 52.69992 -2.30474 21004 ft 400 kts 185°
2026-04-29 14:44 52.67277 -2.30711 21398 ft 391 kts 168°
2026-04-29 14:44 52.64678 -2.29611 21884 ft 383 kts 153°
2026-04-29 14:44 52.62371 -2.27446 22362 ft 379 kts 143°
2026-04-29 14:44 52.60183 -2.25034 22773 ft 382 kts 143°
2026-04-29 14:45 52.57990 -2.22618 23122 ft 386 kts 143°
2026-04-29 14:45 52.55714 -2.20119 23389 ft 392 kts 143°
2026-04-29 14:45 52.53463 -2.17657 23759 ft 395 kts 143°
2026-04-29 14:45 52.51153 -2.15134 24193 ft 396 kts 143°
2026-04-29 14:46 52.48855 -2.12633 24581 ft 398 kts 143°
2026-04-29 14:46 52.46550 -2.10122 24922 ft 401 kts 144°
2026-04-29 14:46 52.44226 -2.07602 25269 ft 403 kts 144°
2026-04-29 14:46 52.41910 -2.05093 25614 ft 404 kts 144°
2026-04-29 14:47 52.39571 -2.02562 25963 ft 406 kts 144°
2026-04-29 14:47 52.37221 -2.00012 26250 ft 408 kts 144°
2026-04-29 14:47 52.34841 -1.97440 26528 ft 411 kts 144°
2026-04-29 14:47 52.32455 -1.94871 26831 ft 412 kts 144°
2026-04-29 14:48 52.30057 -1.92285 27119 ft 414 kts 144°
2026-04-29 14:48 52.27653 -1.89701 27351 ft 417 kts 145°
2026-04-29 14:48 52.25229 -1.87097 27586 ft 419 kts 145°
2026-04-29 14:48 52.22798 -1.84489 27821 ft 421 kts 145°
2026-04-29 14:49 52.20316 -1.81834 28071 ft 423 kts 145°
2026-04-29 14:49 52.17844 -1.79185 28291 ft 424 kts 145°
2026-04-29 14:49 52.15382 -1.76553 28491 ft 427 kts 145°
2026-04-29 14:49 52.12906 -1.73912 28660 ft 429 kts 145°
2026-04-29 14:50 52.10420 -1.71265 28861 ft 430 kts 146°
2026-04-29 14:50 52.07904 -1.68586 29166 ft 429 kts 146°
2026-04-29 14:50 52.05414 -1.65935 29439 ft 429 kts 146°
2026-04-29 14:50 52.02926 -1.63282 29685 ft 429 kts 146°
2026-04-29 14:51 52.00450 -1.60651 29921 ft 429 kts 146°
2026-04-29 14:51 51.97953 -1.58012 30136 ft 430 kts 146°
2026-04-29 14:51 51.95422 -1.55344 30405 ft 430 kts 146°
2026-04-29 14:51 51.92934 -1.52722 30664 ft 429 kts 146°
2026-04-29 14:52 51.90445 -1.50105 30928 ft 428 kts 146°
2026-04-29 14:52 51.87936 -1.47470 31172 ft 428 kts 146°
2026-04-29 14:52 51.85450 -1.44859 31443 ft 427 kts 146°
2026-04-29 14:52 51.82976 -1.42275 31732 ft 426 kts 147°
2026-04-29 14:53 51.80445 -1.39856 32010 ft 425 kts 149°
2026-04-29 14:53 51.77843 -1.37653 32270 ft 424 kts 152°
2026-04-29 14:53 51.75169 -1.35666 32488 ft 425 kts 154°
2026-04-29 14:53 51.72429 -1.33900 32710 ft 425 kts 158°
2026-04-29 14:54 51.69637 -1.32367 32946 ft 425 kts 160°
2026-04-29 14:54 51.66810 -1.30939 33182 ft 424 kts 160°
2026-04-29 14:54 51.64030 -1.29499 33384 ft 423 kts 160°
2026-04-29 14:54 51.61234 -1.28068 33582 ft 423 kts 160°
2026-04-29 14:55 51.58429 -1.26646 33769 ft 422 kts 160°
2026-04-29 14:55 51.55630 -1.25232 33965 ft 422 kts 160°
2026-04-29 14:55 51.52856 -1.23833 34126 ft 422 kts 160°
2026-04-29 14:55 51.50102 -1.22341 34295 ft 420 kts 157°
2026-04-29 14:56 51.47368 -1.20603 34452 ft 419 kts 154°
2026-04-29 14:56 51.44727 -1.18687 34615 ft 418 kts 153°
2026-04-29 14:56 51.42098 -1.16746 34759 ft 418 kts 153°
2026-04-29 14:56 51.39452 -1.14808 34868 ft 418 kts 153°
2026-04-29 14:57 51.36838 -1.12891 34970 ft 419 kts 153°
2026-04-29 14:57 51.31524 -1.08995 35093 ft 421 kts 153°
2026-04-29 14:57 51.28865 -1.07052 35195 ft 421 kts 153°
2026-04-29 14:58 51.26219 -1.05116 35298 ft 421 kts 154°
2026-04-29 14:58 51.20905 -1.01240 35441 ft 423 kts 154°
2026-04-29 14:59 51.15537 -0.97336 35551 ft 425 kts 154°
2026-04-29 14:59 51.10180 -0.93447 35732 ft 425 kts 154°
2026-04-29 15:00 51.04832 -0.89573 35865 ft 426 kts 154°
2026-04-29 15:00 50.99423 -0.85667 36007 ft 427 kts 154°
2026-04-29 15:01 50.94035 -0.81785 36170 ft 427 kts 154°